Lapse_Rate
3.0 3.2 3.0 3.0 3.1 3.2 3.0 3.3 3.1 3.1 3.3 3.4 3.8 3.9 4.0 3.9 4.0 4.5 5.1 5.6 6.3 6.4 6.1 6.0 6.0 5.9 5.9 6.8 6.7 7.0 7.3 7.2 6.7 5.9 5.9 5.6 5.9 6.8 6.5 6.6 6.3 6.5 6.4 6.2 5.4 4.6 4.6
3.0 3.2 2.9 2.9 3.0 2.9 3.2 3.1 2.9 2.9 3.0 3.2 3.4 3.4 3.5 3.6 3.6 3.9 4.6 5.1 6.0 6.2 6.1 6.2 6.2 6.0 6.1 6.6 7.2 6.2 6.9 6.7 6.5 6.2 5.6 6.2 5.4 6.0 6.7 6.7 6.5 5.8 5.8 5.7 5.9 5.1 5.9
2.9 3.1 2.8 3.0 3.0 2.9 3.1 2.9 2.4 2.6 2.9 2.8 2.9 2.8 2.9 3.1 3.1 3.7 4.0 4.6 5.3 5.8 5.9 6.2 6.4 6.7 6.3 7.1 7.2 6.8 6.2 6.7 6.7 6.3 5.8 6.3 5.7 6.1 6.5 6.5 6.4 5.7 6.5 6.4 6.3 5.8 6.5
2.7 2.7 2.8 2.8 3.0 3.1 3.1 2.9 2.7 2.4 2.5 2.4 2.3 2.2 2.4 2.4 2.7 3.0 3.1 4.2 4.8 5.1 5.4 5.8 6.3 6.9 6.3 6.9 6.9 6.9 7.1 7.3 6.6 5.9 6.1 6.9 7.2 5.2 7.1 6.5 6.5 6.5 6.5 6.5 6.5 6.4 5.9
2.2 2.6 2.6 2.6 2.9 3.1 3.0 3.0 2.6 2.6 2.1 2.0 1.8 1.7 1.8 2.0 2.4 2.6 2.7 3.2 4.5 5.5 5.1 5.4 5.8 6.6 6.9 6.7 7.4 8.1 7.8 7.2 7.0 6.4 6.1 7.7 6.2 6.2 6.9 6.5 6.5 6.5 6.5 6.5 6.5 6.4 6.5
2.0 2.4 2.3 2.4 2.6 2.8 2.9 2.7 2.6 2.2 2.0 1.5 1.6 1.3 1.2 1.4 1.7 2.0 2.2 2.8 4.4 4.3 5.4 6.2 6.9 6.0 7.7 7.6 7.6 7.9 6.2 6.5 6.4 6.5 6.6 6.1 6.4 6.5 6.5 6.5 6.5 6.5 6.5 6.5 6.5 6.5 6.5
2.2 2.1 2.1 2.1 2.5 2.5 2.5 2.4 2.2 2.1 1.6 1.2 1.3 1.1 1.0 1.0 1.4 1.7 1.2 2.2 3.5 4.7 5.8 6.1 6.7 6.7 7.7 7.7 7.7 6.0 6.4 6.4 6.9 6.6 6.5 6.1 6.5 6.5 6.5 6.5 6.5 6.5 6.5 6.5 6.5 6.5 6.5
1.8 1.8 2.0 2.0 2.2 2.3 2.3 2.1 1.9 1.7 1.3 0.9 1.2 1.1 1.3 1.2 1.0 1.8 1.5 3.8 3.4 4.1 5.7 7.1 6.4 6.8 7.4 6.7 6.9 6.2 5.9 6.1 6.3 6.5 6.4 6.5 6.5 6.5 6.5 6.5 6.5 6.5 6.5 6.5 6.5 6.5 6.5
1.7 1.7 1.8 1.9 2.0 2.1 1.9 1.9 1.7 1.4 1.2 0.7 1.0 1.2 1.3 1.2 1.3 2.4 2.7 2.6 2.9 3.7 5.3 6.3 6.7 6.6 6.5 6.5 6.8 6.3 6.8 6.2 6.4 6.5 6.5 6.5 6.5 6.5 6.5 6.5 6.5 6.5 6.5 6.5 6.5 6.5 6.5
1.2 1.6 1.6 1.7 1.7 1.8 1.6 1.4 1.4 1.2 1.2 0.5 0.7 1.2 1.2 1.4 3.6 3.9 2.7 3.1 3.1 3.1 6.5 6.5 6.2 6.4 5.8 6.2 6.5 6.8 6.0 6.2 6.4 6.5 6.5 6.5 6.3 6.5 6.5 6.5 6.5 6.5 6.5 6.5 6.5 6.5 6.5
1.0 1.3 1.3 1.3 1.5 1.4 1.2 1.1 1.2 0.9 0.5 0.6 0.3 1.1 1.5 1.7 2.4 3.2 3.0 3.1 3.4 2.7 6.5 6.5 6.0 7.0 5.6 6.1 6.3 6.6 6.0 6.4 6.5 6.5 6.5 6.5 6.5 6.5 6.5 6.5 6.5 6.5 6.5 6.5 6.5 6.5 6.5
1.1 1.1 1.3 1.2 1.2 1.3 1.0 0.8 0.9 0.7 0.3 0.2 0.0 1.0 1.5 2.8 2.0 2.9 3.1 3.2 2.4 6.5 6.5 6.5 6.3 6.4 6.4 5.8 6.2 5.7 6.5 6.1 6.1 6.5 6.5 6.5 6.3 6.5 6.5 6.5 6.5 6.5 6.5 6.5 6.5 6.5 6.5
1.4 1.0 1.1 1.2 1.1 1.0 0.9 0.6 0.6 0.6 0.2 -0.3 0.0 0.6 1.9 3.0 3.3 3.3 2.6 2.4 6.5 6.5 6.5 6.5 6.5 6.5 6.5 6.5 6.5 6.5 6.5 6.5 6.5 6.5 6.5 6.5 6.5 6.5 6.5 6.5 6.5 6.5 6.5 6.5 6.5 6.5 6.5
1.3 1.2 1.0 1.0 1.1 0.9 0.8 0.4 0.4 0.3 -0.3 -0.9 -0.3 0.3 2.7 2.8 3.1 3.0 1.7 6.0 6.5 6.5 6.5 6.5 6.5 6.5 6.5 6.5 6.5 6.5 6.5 6.5 6.5 6.5 6.5 6.5 6.5 6.5 6.5 6.5 6.5 6.5 6.5 6.5 6.5 6.5 6.5
1.2 1.1 1.0 0.9 1.0 1.0 0.7 0.5 0.4 0.2 -0.6 -1.1 -0.7 -0.3 0.9 0.6 2.7 1.1 2.8 6.5 6.5 6.5 6.5 6.5 6.5 6.5 6.5 6.5 6.5 6.5 6.5 6.5 6.5 6.5 6.5 6.5 6.5 6.5 6.5 6.5 6.5 6.5 6.5 6.5 6.5 6.5 6.5
1.0 1.2 1.0 1.0 0.9 0.9 0.6 0.4 0.3 0.4 -0.4 -1.1 -1.1 1.1 2.1 1.9 2.3 1.0 5.3 6.5 6.5 6.5 6.5 6.5 6.5 6.5 6.5 6.5 6.5 6.5 6.5 6.5 6.5 6.5 6.4 6.5 6.5 6.5 6.5 6.4 6.4 6.5 6.5 6.5 6.5 6.5 6.5
1.2 1.1 1.3 1.3 0.9 0.6 0.6 0.4 0.2 -0.0 -0.5 -0.7 -0.3 2.4 2.0 1.8 0.4 1.3 6.5 6.5 6.5 6.6 6.4 6.5 6.5 6.5 6.5 6.5 6.5 6.5 6.5 6.5 6.5 6.5 6.1 6.5 6.5 6.5 6.5 6.5 6.5 6.5 6.5 6.5 6.5 6.5 6.5
1.6 1.3 1.3 1.6 1.5 1.0 0.7 0.6 0.4 -0.1 -0.8 -0.7 0.7 5.9 1.3 0.1 3.5 4.0 6.5 6.5 4.9 6.5 6.5 6.4 6.5 6.5 6.5 6.5 6.5 6.5 6.5 6.5 5.5 6.1 6.5 6.5 6.5 6.5 6.5 6.5 6.5 6.5 6.5 6.5 6.5 6.5 6.5
1.7 1.6 1.4 1.5 1.8 1.5 1.2 0.9 0.8 0.3 -0.5 -2.9 1.8 2.2 1.0 1.5 6.5 6.5 6.4 6.5 6.4 6.5 6.5 6.5 6.5 6.5 6.5 6.5 6.5 6.5 6.5 6.4 5.8 6.5 6.5 6.5 6.5 6.5 6.5 6.5 6.5 6.5 6.5 6.5 6.5 6.5 6.5
1.5 1.7 1.6 1.6 1.8 2.0 1.8 1.4 1.2 0.8 -0.1 -2.1 1.7 6.5 1.9 1.2 2.3 6.1 6.5 6.5 6.5 6.2 6.5 6.5 6.5 6.4 6.5 6.5 6.5 6.5 6.5 6.5 6.3 6.2 5.8 6.1 6.5 6.5 6.5 6.5 6.5 6.5 6.5 6.5 6.5 6.5 6.5
1.7 2.0 2.0 1.9 2.0 2.3 2.4 1.9 1.6 1.2 0.2 -0.7 1.6 4.9 4.3 6.5 5.7 6.2 6.4 6.5 6.5 6.5 6.3 6.4 6.5 6.5 6.5 6.5 6.5 6.5 6.5 6.5 6.5 6.0 6.2 6.5 6.5 6.5 6.5 6.5 6.5 6.5 6.5 6.5 6.5 6.5 6.5
2.5 2.0 2.3 2.6 2.2 2.5 2.4 2.5 2.2 1.7 0.7 0.7 3.0 4.0 2.8 4.2 5.0 6.4 6.5 6.5 6.5 6.5 6.5 6.5 6.5 6.5 6.5 6.5 6.5 6.5 6.5 6.5 6.5 6.4 6.5 6.4 6.5 6.5 6.5 6.5 6.5 6.5 6.5 6.5 6.5 6.5 6.5
2.9 2.6 2.5 2.8 3.2 2.8 2.9 2.9 2.6 2.3 1.5 1.3 1.0 2.0 3.3 4.9 5.9 6.5 6.5 6.5 6.5 6.1 6.3 6.3 6.4 6.5 6.5 6.5 6.0 6.0 5.5 5.4 6.2 6.5 6.5 6.5 6.5 6.5 6.5 6.5 6.5 6.5 6.5 6.5 6.5 6.5 6.5
7.3 5.0 4.2 4.2 4.1 4.0 3.6 3.6 3.1 2.9 2.0 0.7 0.2 0.8 3.4 6.5 6.4 6.5 6.4 6.3 6.5 6.4 6.5 6.3 6.2 6.5 6.1 5.1 5.0 5.8 5.8 6.2 6.3 5.9 5.5 6.5 6.5 6.5 6.5 6.5 6.5 6.5 6.5 6.5 6.5 6.5 6.5
7.9 7.3 6.3 5.6 5.1 4.9 4.6 4.0 3.8 3.6 3.4 1.7 0.7 1.7 2.8 6.5 5.5 6.3 6.0 6.2 5.3 5.7 6.3 6.4 5.7 4.6 4.0 5.3 6.5 6.5 6.5 6.5 6.5 6.5 6.4 6.1 6.5 6.5 6.5 6.5 6.5 6.5 6.5 6.5 6.5 6.5 6.5
7.7 7.7 7.3 6.6 6.1 5.7 5.2 4.5 4.4 4.2 3.9 2.3 1.4 0.5 2.0 4.3 6.1 5.9 5.7 5.5 6.5 6.5 6.5 6.0 5.5 4.8 5.5 5.9 6.5 6.5 6.5 6.5 6.5 6.5 6.1 6.5 6.5 6.5 6.5 6.5 6.5 6.5 6.5 6.3 6.4 6.5 6.4
7.6 7.9 7.6 7.1 6.7 6.2 5.6 5.1 4.8 4.4 4.3 3.1 2.6 2.0 2.2 3.6 3.9 5.4 5.4 5.9 4.3 5.4 6.5 5.8 5.5 5.7 5.1 6.5 6.5 6.5 6.5 6.5 6.5 6.5 6.5 6.5 6.5 6.5 6.5 6.5 6.5 6.5 6.3 6.3 6.5 6.5 6.1
7.2 7.5 7.4 7.6 6.9 6.2 6.0 5.6 5.1 5.0 4.7 3.5 3.2 2.9 3.2 3.4 4.2 4.8 5.2 4.7 4.8 4.3 6.5 5.3 5.9 5.8 6.0 6.5 6.5 6.5 6.5 6.5 6.5 6.5 6.5 6.5 6.5 6.5 6.5 6.5 6.5 5.7 6.4 6.5 5.9 5.6 5.5
7.1 7.4 7.1 6.6 6.6 5.9 5.5 5.3 4.9 5.1 5.3 4.9 4.2 3.6 3.5 4.4 5.0 4.0 4.2 4.2 4.4 4.7 3.8 4.3 5.4 5.2 4.7 6.5 6.5 6.5 6.5 6.5 6.5 6.5 6.5 6.5 6.5 6.5 6.5 6.5 5.6 4.8 5.4 4.4 3.3 4.1 5.6
Wind_Speed
17 18 18 18 17 17 16 15 14 13 13 14 14 15 16 18 19 19 15 10 8 7 7 8 10 9 4 4 3 6 7 4 7 4 4 4 3 5 6 5 4 8 6 11 12 10 9
18 18 18 18 18 18 16 16 16 14 14 14 14 14 16 18 19 19 15 9 7 6 6 7 8 9 0 4 1 5 4 3 4 3 3 1 5 8 3 5 11 7 7 8 6 8 4
17 18 19 19 19 18 18 17 17 16 15 14 14 15 16 17 19 18 15 10 8 10 10 10 6 2 5 1 3 7 3 2 2 2 3 1 8 6 4 8 8 7 6 8 4 4 1
17 19 19 19 20 19 19 19 18 18 17 16 15 15 17 17 18 18 15 13 13 13 14 11 6 1 1 1 5 7 7 5 3 3 1 5 4 10 4 5 3 5 6 4 4 3 2
16 18 20 21 21 21 21 20 20 19 18 17 17 16 16 18 18 17 19 17 15 11 14 12 3 2 4 5 3 1 2 3 2 3 1 5 2 4 8 2 3 6 5 4 1 2 2
15 18 19 20 21 22 22 22 21 20 19 17 17 16 16 17 18 20 21 17 14 13 3 2 3 6 5 7 2 2 3 6 3 4 2 3 4 1 4 4 6 5 6 4 6 4 3
16 18 20 21 21 22 23 23 22 22 20 17 17 16 16 17 18 18 10 4 5 5 6 3 2 6 3 4 3 3 5 3 6 3 3 4 5 5 17 8 5 3 4 3 2 1 3
16 17 19 21 22 23 24 24 24 23 21 18 16 16 15 16 17 17 1 3 3 3 3 1 2 4 2 2 2 5 3 4 5 4 4 6 3 3 5 6 2 5 6 2 4 2 3
15 17 19 20 21 22 23 25 24 24 23 18 16 15 15 16 15 4 3 2 2 2 1 2 2 1 4 2 1 6 3 4 7 9 6 3 3 6 1 4 8 6 6 5 8 4 2
15 17 18 20 21 22 24 24 24 24 23 20 18 14 15 18 3 1 2 2 3 1 4 8 7 2 2 4 2 2 2 2 2 7 4 0 7 5 6 5 4 2 2 4 12 5 5
14 15 17 19 20 21 23 24 25 24 22 22 19 13 15 7 3 2 1 3 3 3 6 9 7 2 6 3 3 3 2 2 4 2 5 3 7 7 6 4 3 3 2 4 4 5 5
15 15 16 18 20 21 22 23 25 25 23 22 17 12 15 4 2 2 1 2 3 6 2 6 4 7 6 5 5 5 3 4 1 6 6 2 2 3 1 2 4 3 4 8 5 4 2
17 15 16 18 19 20 21 22 24 26 24 22 15 11 4 3 1 2 3 3 5 6 2 6 3 5 5 4 5 3 5 7 4 5 5 6 4 5 2 3 2 8 7 3 3 3 4
16 16 16 17 19 20 21 22 24 25 24 23 13 7 1 3 3 3 3 5 7 5 1 1 3 6 1 4 3 6 3 5 6 5 1 3 5 7 7 2 2 5 4 4 5 4 3
16 16 16 17 18 19 20 22 24 26 24 23 9 0 0 2 5 3 4 5 6 3 2 4 5 3 5 4 1 3 4 3 2 4 3 2 2 2 2 3 3 2 2 2 5 3 4
14 16 16 17 16 18 19 21 23 26 24 19 2 1 1 5 7 3 5 3 2 0 2 1 2 4 5 6 4 4 3 2 4 2 2 3 4 2 4 5 2 2 3 2 3 3 1
15 14 16 15 16 18 19 19 23 24 28 6 2 3 2 7 3 5 4 3 1 1 2 2 1 2 4 4 5 4 5 2 4 7 3 1 3 4 3 3 2 4 3 3 4 3 3
17 15 14 16 16 17 19 19 21 23 26 4 1 2 1 3 4 2 2 1 3 0 2 3 0 0 1 2 5 4 3 2 7 4 5 3 4 3 0 2 1 1 1 3 4 2 2
19 18 15 15 16 17 18 18 20 19 16 1 2 2 1 3 3 1 1 2 2 1 0 2 1 0 2 1 3 1 1 2 5 3 2 4 3 2 5 4 3 1 1 3 4 3 1
21 19 17 15 15 17 16 17 18 19 12 2 2 2 4 3 1 6 4 3 2 1 1 1 2 2 2 1 1 1 1 2 2 2 5 2 3 3 4 1 2 1 2 2 4 4 4
22 21 18 17 15 15 15 16 18 21 18 3 2 2 3 1 3 1 2 6 3 1 2 1 2 0 2 2 0 2 2 3 0 3 2 3 2 2 4 5 2 4 5 5 5 4 5
25 22 20 18 16 14 13 14 16 20 19 3 2 2 2 2 2 1 1 4 6 2 3 2 1 0 2 2 2 1 4 5 2 3 2 1 1 1 2 3 0 5 7 8 4 2 6
28 24 21 19 17 14 13 11 12 17 13 2 1 1 3 2 2 4 3 2 3 5 1 2 1 2 1 1 1 2 2 2 2 1 3 2 2 3 2 4 6 2 1 4 4 4 4
31 27 24 21 18 17 13 11 8 9 8 1 2 3 3 4 3 4 5 4 3 2 3 1 2 1 1 4 4 2 1 1 2 5 2 2 2 2 3 6 4 4 4 4 6 5 6
33 30 26 23 20 19 15 12 9 5 6 0 1 2 3 3 3 2 5 4 6 3 2 3 1 2 1 3 4 4 3 1 4 4 5 4 2 2 2 1 7 3 3 2 2 2 4
35 32 28 25 23 21 19 16 12 7 3 1 1 2 2 3 5 2 4 4 3 4 1 3 2 1 2 2 2 2 3 4 2 1 5 4 5 3 2 2 5 2 1 1 1 1 1
36 34 31 28 25 22 19 18 16 11 7 2 2 2 2 3 3 1 3 5 4 2 3 3 3 2 2 3 2 3 4 1 3 4 4 2 2 4 2 3 7 2 3 2 3 5 4
36 35 31 28 25 23 20 19 17 15 11 4 2 3 3 2 3 2 3 4 2 2 4 4 4 1 2 3 4 4 3 3 0 4 5 6 6 4 3 3 7 5 2 4 4 3 4
36 33 29 25 23 21 19 17 17 16 15 9 2 2 3 2 3 0 1 1 1 2 4 2 2 3 4 2 1 2 1 0 3 3 1 2 5 4 8 5 3 4 4 3 6 4 3
Wind_Direction
22 23 22 21 19 18 13 7 2 352 346 340 341 337 335 333 337 341 343 346 359 3 359 351 347 350 16 66 20 345 7 344 25 60 133 134 91 114 190 343 256 244 184 256 275 277 229
19 19 18 18 17 16 12 5 1 357 351 345 345 341 337 335 340 344 342 337 339 340 345 1 344 345 34 69 51 316 335 324 40 94 99 148 152 100 74 286 243 185 222 270 273 285 216
18 17 16 14 14 12 10 5 358 352 349 347 345 342 336 337 340 347 345 330 315 308 312 324 329 342 49 101 199 236 270 3 114 136 135 88 148 107 86 251 240 223 191 253 253 274 116
16 15 14 13 11 9 8 6 1 350 345 342 340 338 334 337 339 339 337 321 312 298 296 293 308 233 317 109 255 268 183 130 102 81 116 148 88 101 174 285 278 208 126 140 268 281 336
13 12 11 10 8 5 5 4 1 354 346 339 335 332 331 333 337 335 325 315 296 291 280 279 299 189 9 143 270 279 21 51 142 128 191 176 161 181 158 173 86 244 169 130 102 349 33
7 8 8 8 6 2 2 2 0 356 349 339 335 330 327 327 331 329 323 300 285 314 32 211 250 62 302 339 110 92 219 179 204 167 210 193 192 157 103 134 187 186 140 145 153 215 109
360 1 3 4 2 360 359 360 359 356 350 344 336 329 323 322 326 324 345 360 19 5 27 120 246 137 225 292 126 282 191 219 185 215 142 224 47 95 201 213 193 154 123 128 107 76 114
357 356 360 0 359 359 357 356 357 356 351 345 336 329 324 321 321 318 308 75 112 180 328 350 195 147 172 331 301 290 326 24 325 23 119 20 112 292 312 301 211 66 107 121 50 79 87
353 353 356 357 357 355 354 352 354 354 352 345 335 328 324 321 320 350 73 77 333 357 147 304 229 315 274 61 40 313 30 314 90 57 30 71 311 305 303 356 102 41 138 182 149 150 23
342 348 353 353 353 352 351 349 348 352 352 345 338 332 330 328 350 293 35 333 322 324 68 315 337 320 284 184 70 299 271 121 79 137 189 61 310 30 56 43 354 93 320 197 136 98 166
333 340 344 346 347 348 347 347 344 347 351 343 336 334 337 356 287 61 206 324 335 53 48 297 309 274 292 88 243 339 245 55 4 136 136 278 3 38 57 320 339 194 336 90 130 99 93
328 331 336 339 342 342 343 343 341 341 346 345 336 330 346 30 47 340 345 7 45 43 300 325 308 332 17 4 4 344 28 25 147 51 27 81 316 76 264 292 219 218 54 43 46 72 45
327 326 330 333 336 337 340 341 339 339 343 343 338 322 13 347 276 356 10 45 32 88 304 304 309 337 331 338 348 64 61 44 35 57 10 8 360 332 42 282 222 58 61 33 27 14 205
321 323 325 330 331 334 337 339 337 338 340 340 331 319 315 119 118 88 51 55 74 237 270 333 296 306 234 349 322 25 73 28 3 39 98 125 356 358 337 46 97 39 123 159 168 173 217
308 314 318 325 329 331 335 337 337 335 339 341 324 317 245 225 134 77 76 50 179 202 275 329 319 30 343 345 309 85 70 30 28 29 95 108 322 253 320 13 65 351 49 192 109 4 69
296 305 310 318 327 330 333 336 335 334 338 341 353 47 244 159 131 78 74 168 182 303 309 301 39 21 7 334 37 30 40 347 329 346 90 287 85 1 359 25 284 239 179 71 3 106 81
284 294 302 307 317 324 328 336 333 337 339 345 48 37 242 143 88 54 111 189 140 201 244 142 53 15 10 0 2 20 340 351 358 317 338 14 97 314 40 20 326 347 21 37 111 99 138
282 282 290 295 306 316 323 332 334 340 345 47 34 30 221 106 50 56 73 32 336 355 278 297 264 317 133 15 14 33 25 336 345 328 332 351 125 85 268 249 235 229 20 84 100 341 39
271 272 275 283 296 307 316 329 333 339 3 39 344 243 34 85 107 60 249 58 13 256 305 309 300 21 289 296 117 114 111 287 353 37 59 350 345 91 348 346 311 147 154 116 113 88 159
257 261 262 270 285 297 309 322 331 333 351 98 61 356 331 49 189 135 154 178 187 193 280 311 301 317 286 208 184 93 129 230 349 3 307 330 74 140 183 205 109 179 180 184 121 114 198
248 251 255 260 271 285 300 317 326 330 334 125 43 231 209 294 328 62 127 170 144 243 225 195 271 225 351 338 331 98 354 137 230 288 322 86 100 47 293 278 258 225 216 193 175 203 166
241 240 243 250 258 272 289 306 321 329 339 76 144 129 16 248 150 60 359 218 186 161 155 222 198 15 10 50 30 286 0 29 58 336 33 25 230 56 303 33 350 246 229 228 241 236 273
233 231 232 239 250 257 268 285 313 332 345 115 264 58 103 253 209 118 213 220 148 126 77 105 38 54 252 131 262 203 210 243 260 28 358 38 75 28 300 317 283 26 330 177 162 184 177
232 225 226 229 236 247 252 265 288 326 354 186 209 116 104 267 175 208 167 144 152 131 140 139 38 83 172 313 274 186 291 271 32 14 69 45 65 69 289 349 12 257 46 89 113 43 13
229 224 221 221 223 234 240 242 255 281 330 202 226 134 137 240 192 168 154 143 129 130 152 146 94 163 310 19 29 3 344 4 32 42 17 47 74 53 86 290 293 102 1 43 113 49 7
224 221 216 216 219 227 227 228 235 231 271 275 223 137 126 133 243 119 155 169 174 169 126 144 123 72 68 83 85 179 230 231 233 20 11 65 77 103 127 159 236 280 220 98 123 262 71
220 219 213 210 214 220 224 223 224 222 203 169 233 141 102 168 253 147 173 181 162 138 137 141 174 120 81 119 158 200 248 207 220 188 156 95 69 184 201 242 281 224 206 337 127 217 163
214 213 209 206 207 212 217 211 211 216 201 158 231 170 138 209 259 173 177 142 108 133 160 181 88 298 88 164 166 223 184 234 7 161 174 166 149 199 184 209 268 175 136 189 189 152 124
204 205 203 198 202 198 197 200 207 208 199 175 194 176 139 138 282 103 92 64 74 109 136 182 188 151 181 121 203 121 194 131 167 242 208 210 191 189 191 218 213 174 199 216 171 159 141